Retour au catalogue

CZ-4 DEB

ActifSSO
NORAD 20894·DEBRIS·🇨🇳 China

Lancé Sep 3, 1990 depuis Taiyuan Satellite Launch Center

Loading…

Prochains Passages (prochaines 24 heures)

TLE

FraisSource: Space-Track

Époque: Sep 13, 2026, 05:24 UTC

1 20894U 90081BE  26256.22529228  .00000975  00000-0  35633-3 0  9998
2 20894  98.5567 254.4272 0019485  46.9767  12.6690 14.35087746862990

Suivez CZ-4 DEB en temps réel avec AllMySat

Download on the App Store